Location: Newark
(20.1200°S, 168.9600°E)
Time: 22:12:50
(UTC+00:00)

LightSail 2 - Pass Details

Date: 29 November 2019
Orbit: 696 x 730 km, 24.0° (Epoch: 13 December)

Event Time Altitude Azimuth Distance (km) Brightness Sun altitude
Exits shadow 16:57:27 12° 336° (NNW) 2,058 7.1 -13.0°
Maximum altitude 17:01:04 23° 25° (NNE) 1,488 6.8 -12.3°
Drops below altitude 10° 17:05:09 10° 77° (ENE) 2,202 8.4 -11.5°
Sets 17:08:02 0° 91° (E) 3,131 9.7 -10.9°
